User: anonymous   Login
Location: Brede
(50.9167°N, 0.6000°E)
Time: 01:03:27
(UTC+00:00)
Language:

Landsat 5 - Orbit

View from above orbital plane
View from above orbital plane
View from above satellite
View from above satellite

Ground track
Ground track

The orbit data is extracted from the following two-line orbital elements,

1 14780U 84021A   20292.89421118 +.00000108 +00000-0 +15998-4 0  9999
2 14780 098.1867 094.6573 0091129 118.4198 242.6241 14.92124124482183
Epoch (UTC): 18 October 2020 21:27:39
Eccentricity: 0.0091129
inclination: 98.1867°
perigee height: 528 km
apogee height: 655 km
right ascension of ascending node: 94.6573°
argument of perigee: 118.4198°
revolutions per day: 14.92124124
mean anomaly at epoch: 242.6241°
orbit number at epoch: 48218

The dashed part of the orbit path shows where the satellite is in the earth's shadow,  

DLR